• Processing (Info)

  • MPEC 2014-F79 : 2014 FA44

    The following Minor Planet Electronic Circular may be linked-to from your own Web pages, but must not otherwise be redistributed electronically.

    A form allowing access to any MPEC is at the bottom of this page.


    Read MPEC 2014-F78 Read MPEC 2014-F80


    M.P.E.C. 2014-F79                                Issued 2014 Mar. 31, 09:53 UT
    
         The Minor Planet Electronic Circulars contain information on unusual
             minor planets and routine data on comets.  They are published
       on behalf of Commission 20 of the International Astronomical Union by the
              Minor Planet Center, Smithsonian Astrophysical Observatory,
                              Cambridge, MA 02138, U.S.A.
    
                 Prepared using the Tamkin Foundation Computer Network
    
                                  MPC@CFA.HARVARD.EDU
                URL https://www.minorplanetcenter.net/    ISSN 1523-6714
    
                                       2014 FA44
    
    Observations:
         K14F44A* C2014 03 29.38509 12 33 30.07 +03 08 12.2          21.2 VqEF079G96
         K14F44A  C2014 03 29.39514 12 33 29.89 +03 08 11.7          21.1 VqEF079G96
         K14F44A  C2014 03 29.40947 12 33 29.66 +03 08 10.2          20.9 VqEF079G96
         K14F44A  C2014 03 29.41956 12 33 29.51 +03 08 09.5          20.7 VqEF079G96
         K14F44A  C2014 03 29.45132912 33 29.01 +03 08 04.6          20.4 RtEF079H01
         K14F44A  C2014 03 29.45254 12 33 29.12 +03 08 06.2          20.8 VqEF079G96
         K14F44A  C2014 03 29.45513 12 33 29.12 +03 08 06.1          20.9 VqEF079G96
         K14F44A  C2014 03 29.45775 12 33 29.05 +03 08 06.0          21.7 VqEF079G96
         K14F44A  C2014 03 29.45918912 33 28.93 +03 08 03.9          20.7 RtEF079H01
         K14F44A  C2014 03 29.46035 12 33 29.02 +03 08 06.1                qEF079G96
         K14F44A  C2014 03 29.46825312 33 28.87 +03 08 03.1          20.6 RtEF079H01
         K14F44A  C2014 03 29.47605712 33 28.83 +03 08 02.4          20.2 RtEF079H01
         K14F44A KC2014 03 29.97320 12 33 37.27 +03 07 14.0          20.7 VqEF079595
         K14F44A KC2014 03 29.99730 12 33 36.98 +03 07 12.6                qEF079595
         K14F44A |C2014 03 30.15419 12 33 40.55 +03 08 42.0          20.1 VuEF079807
         K14F44A |C2014 03 30.16051 12 33 40.43 +03 08 41.4          20.3 VuEF079807
         K14F44A |C2014 03 30.16813 12 33 40.28 +03 08 40.8          20.5 VuEF079807
         K14F44A HC2014 03 30.22809 12 33 42.28 +03 07 09.4          20.0 RoEF079291
         K14F44A HC2014 03 30.23810 12 33 42.13 +03 07 08.6          19.9 RoEF079291
         K14F44A  C2014 03 30.24481 12 33 41.95 +03 07 08.6          20.3 RoEF079926
         K14F44A HC2014 03 30.24860 12 33 41.93 +03 07 07.8          20.2 RoEF079291
         K14F44A  C2014 03 30.26171 12 33 41.63 +03 07 07.6          20.5 RoEF079926
         K14F44A  C2014 03 30.27872 12 33 41.29 +03 07 06.4          20.0 RoEF079926
         K14F44A KC2014 03 30.28359 12 33 39.38 +03 06 56.0          20.3 VqEF079H21
         K14F44A KC2014 03 30.29344 12 33 39.21 +03 06 54.7          20.3 VqEF079H21
         K14F44A KC2014 03 30.30330 12 33 39.08 +03 06 53.8                qEF079H21
         K14F44A  C2014 03 30.35948412 33 39.09 +03 06 59.7          20.5 VqEF079V37
         K14F44A  C2014 03 30.36284212 33 39.03 +03 06 59.5          20.7 VqEF079V37
         K14F44A  C2014 03 30.36618812 33 38.96 +03 06 59.3          20.8 VqEF079V37
         K14F44A  C2014 03 30.36953412 33 38.90 +03 06 58.7          20.8 VqEF079V37
         K14F44A HC2014 03 31.22637 12 33 51.88 +03 05 34.4          19.7 RoEF079291
         K14F44A HC2014 03 31.24604 12 33 51.53 +03 05 32.3          19.9 RoEF079291
         K14F44A HC2014 03 31.26428 12 33 51.17 +03 05 30.5          20.5 RoEF079291
    
    Observer details:
    291 LPL/Spacewatch II.  Observer R. A. Mastaler.  1.8-m f/2.7 reflector + CCD.
    595 Farra d'Isonzo.  Observers S. Deiuri, E. Pettarin, F. Piani.  Measurer
        E. Pettarin.  0.61-m f/4.0 reflector + CCD.
    807 Cerro Tololo.  Observers T. Linder, R. Holmes.  Measurers T. Linder,
        R. Holmes, K. Baker.  0.41-m f/11 Ritchey-Chretien + CCD.
    926 Tenagra II Observatory.  Observers M. Schwartz, P. R. Holvorcem.  0.81-m
        f/7 Ritchey-Chretien + CCD.
    G96 Mt. Lemmon Survey.  Observer J. A. Johnson.  Measurers E. J. Christensen,
        A. R. Gibbs, A. D. Grauer, R. E. Hill, J. A. Johnson, R. A. Kowalski,
        S. M. Larson, F. C. Shelly.  1.5-m reflector + CCD.
    H01 Magdalena Ridge Observatory, Socorro.  Observers W. H. Ryan,
        C. J. Corbally.  Measurer W. H. Ryan.  2.4-m f/8.9 reflector + CCD.
    H21 Astronomical Research Observatory, Westfield.  Observer R. Holmes.
        Measurers L. Buzzi, S. Foglia, T. Vorobjov, T. Linder, H. Devore.  0.61-m
        f/4.0 astrograph + CCD.
    V37 McDonald Observatory-LCOGT ELP.  Observers E. J. Christensen, S. M. Larson,
        T. Lister.  Measurer T. Lister.  1.0-m f/8 Ritchey-Chretien + CCD.
    
    Orbital elements:
    2014 FA44                                                Earth MOID = 0.0414 AU
    Epoch 2014 May 23.0 TT = JDT 2456800.5                  MPC
    M   4.57069              (2000.0)            P               Q
    n   0.67320469     Peri.  187.27580     -0.58535949     +0.81068225
    a   1.2893514      Node    46.89672     -0.74302695     -0.53037116
    e   0.1836863      Incl.    0.95656     -0.32444603     -0.24799340
    P   1.46           H   24.9           G   0.15           U   8
    Residuals in seconds of arc
    140329 G96  0.3+  0.1+    140329 H01  0.3-  0.1-    140330 926  0.1-  0.3+
    140329 G96  0.2+  0.4+    140329 595  0.7-  0.1-    140330 H21  0.2-  0.2+
    140329 G96  0.1+  0.0     140329 595  0.4+  0.5+    140330 H21  0.2-  0.2-
    140329 G96  0.1+  0.1+    140330 807  0.1+  0.0     140330 H21  0.3+  0.2-
    140329 H01  0.0   0.0     140330 807  0.2+  0.1-    140330 V37  0.1+  0.2-
    140329 G96  0.1+  0.4-    140330 807  0.3+  0.1-    140330 V37  0.1+  0.1-
    140329 G96  0.5+  0.3-    140330 291  0.1-  0.1+    140330 V37  0.0   0.0
    140329 G96  0.2-  0.2-    140330 291  0.2+  0.1+    140330 V37  0.0   0.2-
    140329 H01  0.3-  0.1-    140330 926  0.1-  0.1-    140331 291  0.1+  0.1+
    140329 G96  0.3-  0.2+    140330 291  0.0   0.0     140331 291  0.0   0.1-
    140329 H01  0.3-  0.1-    140330 926  0.1-  0.2+    140331 291  0.2-  0.1-
    
    Ephemeris:
    2014 FA44                a,e,i = 1.29, 0.18, 1                   q = 1.0525
    Date    TT    R. A. (2000) Decl.     Delta      r     Elong.  Phase     V
    2014 03 01    12 23 42.4 +02 59 46   0.1958  1.1716   155.4    20.6    22.7
    ...
    2014 03 16    12 30 48.7 +03 05 52   0.1420  1.1338   167.8    10.7    21.6
    ...
    2014 03 24    12 32 41.0 +03 10 51   0.1194  1.1155   173.1     6.2    21.0
    ...
    2014 03 30    12 33 37.7 +03 08 09   0.1050  1.1030   173.3     6.1    20.7
    2014 03 31    12 33 47.2 +03 06 40   0.1028  1.1010   172.9     6.4    20.7
    2014 04 01    12 33 57.2 +03 04 47   0.1007  1.0990   172.4     6.9    20.6
    ...
    2014 04 07    12 35 22.1 +02 43 16   0.08881 1.0880   168.5    10.6    20.5
    ...
    2014 04 15    12 39 26.9 +01 36 51   0.07541 1.0754   162.8    16.0    20.3
    ...
    2014 04 30    13 00 22.6 -03 29 35   0.05629 1.0588   155.7    23.0    19.9
    
    A. U. Tomatic                (C) Copyright 2014 MPC           M.P.E.C. 2014-F79
    

    Read MPEC 2014-F78 Read MPEC 2014-F80


    MPEC number:

    Enter an MPEC number in one of the following forms:

    • 1997-B01 (the full form)
    • J97B01 (the packed version of the full form)
    • B01 (the abbreviated form)